Temperature
11 10 10 9 9 9 9 9 8 8 8 7 7 7 7 7 7 7 7 7 7 7 7 7 7 7 7 7 7 7 7 8 7 7 8 8 9 9 9 9 9 9 10
10 10 9 9 9 9 8 8 8 8 7 7 7 7 7 7 7 7 7 7 6 6 6 6 7 7 7 7 7 7 7 7 7 6 6 7 8 8 8 9 9 9 9
10 9 9 9 9 8 8 8 8 7 7 7 7 7 7 6 6 6 6 6 6 6 6 6 6 6 6 6 6 6 6 6 6 6 6 6 6 7 8 8 8 8 8
10 10 9 9 9 8 8 8 7 7 7 7 6 6 6 6 6 6 6 6 6 6 6 6 6 6 6 6 6 6 6 6 6 6 6 6 6 6 6 7 7 8 8
10 9 9 9 9 8 8 7 7 7 7 6 6 6 6 6 6 5 5 5 5 5 5 5 5 5 5 5 5 5 5 5 5 5 5 5 6 6 5 6 6 7 8
9 9 9 9 8 8 8 7 7 7 6 6 6 6 6 5 5 5 5 5 5 5 5 5 5 5 5 5 5 5 5 5 5 5 5 5 5 5 5 5 6 6 7
9 9 9 8 8 8 7 7 7 6 6 6 6 6 5 5 5 5 5 5 4 5 5 5 5 5 5 5 4 4 4 5 5 5 5 5 5 5 5 5 5 5 6
9 9 8 8 8 7 7 7 6 6 6 6 5 5 5 5 5 5 4 4 4 4 4 4 4 4 4 4 4 4 4 4 4 4 4 5 5 5 5 5 5 5 5
8 8 8 8 7 7 7 6 6 6 6 5 5 5 5 5 5 4 4 4 4 4 4 4 4 4 4 4 4 4 4 4 4 4 4 4 5 5 5 5 5 5 4
8 8 8 8 7 7 7 6 6 6 5 5 5 5 5 5 4 4 4 4 4 3 3 3 3 3 3 3 3 4 4 4 4 4 4 4 4 4 4 4 5 5 5
8 8 8 7 7 7 6 6 6 5 5 5 5 4 4 4 4 4 4 3 3 3 3 3 3 3 3 3 3 3 3 3 3 3 3 4 4 4 4 4 4 5 5
8 8 8 7 7 6 6 6 6 5 5 5 4 4 4 4 3 3 3 3 3 3 3 3 3 3 3 3 3 3 3 3 3 3 3 3 4 4 4 4 4 4 4
8 7 7 7 6 6 6 6 5 5 5 4 4 4 3 3 3 3 3 3 2 2 2 3 3 3 3 3 3 3 3 3 3 3 3 3 3 3 3 4 4 4 4
7 7 7 6 6 6 5 5 5 4 4 4 3 3 3 3 3 3 3 2 2 2 2 2 2 2 2 3 3 2 2 2 2 3 3 3 3 3 3 3 4 4 4
7 6 6 6 5 5 5 5 4 4 4 3 3 3 2 2 2 2 2 2 2 2 2 2 2 2 2 2 2 2 2 2 2 2 3 3 3 3 3 3 3 3 4
6 6 6 5 5 5 4 4 4 3 3 3 2 2 2 2 2 2 2 2 2 2 2 2 2 2 2 2 2 1 1 2 2 2 2 2 3 3 3 3 3 3 4
6 6 5 5 5 4 4 4 3 3 3 2 2 2 2 2 2 2 1 1 1 1 1 1 1 1 2 2 1 1 1 1 2 2 2 2 2 3 3 3 3 4 4
5 5 5 5 4 4 3 3 3 3 2 2 2 2 1 1 1 1 1 1 1 1 1 1 1 1 1 1 1 1 1 1 1 2 2 2 2 2 3 3 3 3 4
5 5 4 4 4 3 3 3 2 2 2 2 1 1 1 1 1 1 1 1 1 1 1 1 1 1 1 1 1 1 1 1 1 1 2 2 2 2 3 3 3 3 3
4 4 4 4 3 3 2 2 2 2 2 1 1 1 1 1 0 0 0 0 0 0 1 1 0 0 0 1 1 1 0 1 1 1 1 2 2 2 2 2 2 3 3
4 3 3 3 3 2 2 2 1 1 1 1 1 1 0 0 0 0 0 -0 -0 -0 0 0 0 0 0 0 0 0 0 0 0 1 1 1 2 2 2 2 3 3 3
3 3 3 2 2 2 1 1 1 1 1 1 0 0 0 0 -0 -0 -0 -0 -0 -1 -1 -1 -0 -0 -0 -0 -0 -0 -0 0 0 0 1 1 2 2 2 2 2 2 2
2 2 2 2 2 1 1 0 0 0 0 -0 -0 -0 -0 -0 -1 -1 -1 -1 -1 -1 -1 -1 -1 -1 -1 -1 -1 -0 -0 -0 0 0 0 1 1 2 2 2 2 2 2
2 2 1 1 1 1 0 0 -0 -0 -0 -1 -0 -1 -1 -1 -1 -1 -1 -1 -1 -2 -2 -2 -2 -2 -1 -1 -1 -1 -1 -0 -0 -0 0 1 1 1 1 2 2 2 2
1 1 1 1 0 0 0 -0 -0 -1 -1 -1 -1 -1 -1 -1 -1 -1 -2 -2 -2 -2 -2 -2 -2 -2 -2 -2 -1 -1 -1 -1 -0 -0 0 0 1 1 1 1 2 2 2
1 1 0 0 -0 -0 -0 -1 -1 -1 -1 -1 -2 -2 -2 -2 -2 -2 -2 -2 -2 -2 -2 -2 -2 -2 -2 -2 -1 -1 -1 -1 -0 0 0 0 0 1 1 1 1 1 1
Wind_Speed
7 6 5 4 3 3 3 3 3 4 3 2 2 2 3 4 4 5 7 7 7 7 5 6 5 4 5 5 5 4 4 3 2 2 4 5 5 6 5 5 5 6 7
5 4 4 4 3 3 3 4 5 5 4 3 3 3 4 4 5 5 6 7 7 6 6 6 6 5 5 6 5 4 3 4 2 2 2 3 3 4 5 5 6 6 6
8 6 5 5 4 4 5 5 5 5 5 5 3 3 2 3 3 4 4 5 6 6 6 6 6 6 6 6 6 6 5 5 4 4 3 2 3 3 4 5 6 6 5
6 6 5 4 5 6 5 5 6 6 6 5 4 4 4 6 6 5 5 6 7 7 7 7 7 7 6 6 7 6 6 6 6 4 5 5 4 3 3 3 5 7 7
7 6 6 6 6 6 5 6 6 6 6 5 5 5 6 7 6 5 7 7 6 7 7 8 7 8 7 7 8 7 7 7 7 6 4 5 6 6 5 6 5 5 6
6 5 5 5 5 5 5 5 6 7 6 6 6 6 8 8 8 8 7 6 5 6 7 8 7 8 8 9 9 9 9 9 8 8 7 6 5 6 6 7 7 6 6
5 5 5 5 6 6 6 6 6 7 7 7 7 7 8 8 9 9 7 7 6 6 7 8 8 8 8 9 9 9 10 10 10 10 8 8 8 6 6 6 6 6 5
6 6 7 7 7 7 7 6 6 7 7 7 7 7 8 7 7 8 7 8 7 7 8 8 9 9 9 10 9 9 11 10 11 12 11 9 8 8 7 7 6 6 6
6 7 7 7 7 7 7 7 7 7 7 7 7 7 7 7 8 8 8 7 7 7 8 9 9 9 10 10 10 9 10 10 11 11 11 10 9 8 8 7 7 7 8
6 7 6 7 7 7 7 6 6 7 7 7 6 6 7 7 7 8 8 8 8 8 8 9 10 10 10 10 10 9 10 11 11 10 11 11 9 8 8 8 8 7 8
7 7 6 6 6 6 5 5 6 6 6 6 6 7 7 7 7 7 8 8 8 8 9 10 10 10 10 10 10 10 10 11 11 11 12 12 10 9 8 8 8 8 7
6 6 6 5 5 5 5 5 6 6 6 6 6 7 7 7 7 8 9 8 9 9 10 10 10 10 10 9 10 11 11 11 12 12 12 12 10 11 9 9 9 8 7
6 5 4 4 5 5 5 5 5 5 6 6 6 7 7 8 8 9 9 8 8 9 10 9 10 10 10 9 10 10 11 11 11 12 12 12 11 11 9 9 9 8 7
5 5 4 4 5 5 5 5 5 5 5 5 6 7 8 8 8 9 8 8 8 9 9 9 9 9 10 10 9 9 10 10 10 11 11 12 12 13 11 10 9 8 7
6 5 5 5 5 5 5 4 5 5 5 5 6 7 8 8 7 8 8 8 8 9 8 9 8 8 8 8 9 8 9 10 10 10 11 11 13 15 13 10 9 8 7
7 6 5 5 5 5 5 5 5 5 5 5 6 7 7 7 7 8 8 8 8 8 8 8 8 8 8 12 14 11 8 8 9 9 9 10 12 14 15 16 15 13 11
6 6 6 5 5 5 5 5 6 5 5 5 6 7 7 8 8 9 8 8 8 8 8 8 7 7 9 14 14 13 9 7 7 7 7 8 9 11 9 11 12 12 14
6 6 5 5 5 5 5 5 5 5 5 6 7 7 7 8 8 8 8 8 8 7 7 7 7 7 9 13 13 13 9 7 7 7 7 8 8 9 9 7 7 8 8
5 5 5 5 4 4 4 4 5 5 5 6 7 7 7 8 8 8 8 7 7 7 7 7 7 7 9 12 12 11 5 5 6 7 7 8 8 10 10 7 7 6 5
3 4 3 3 4 4 3 3 5 5 6 7 7 7 7 7 8 8 8 6 6 7 7 7 6 6 7 10 12 11 5 5 5 5 5 8 9 9 9 8 7 7 6
4 3 3 3 4 4 2 3 4 5 6 6 7 7 7 7 7 7 6 6 7 7 7 7 7 5 6 9 11 11 4 3 4 4 4 5 9 9 9 8 7 8 6
4 4 3 4 4 2 2 4 5 6 6 6 6 7 7 7 7 7 7 6 6 6 6 6 7 5 5 7 8 8 7 6 4 4 4 4 6 7 7 6 6 7 6
4 4 3 4 4 3 2 4 6 6 6 6 7 7 8 7 6 6 7 6 5 5 5 5 6 6 4 5 8 7 7 7 4 3 6 6 5 4 4 5 6 6 5
4 4 3 4 5 5 4 4 5 6 5 6 7 6 7 7 6 5 5 5 5 5 5 5 5 6 5 4 4 4 4 5 4 4 4 4 3 2 2 3 3 4 5
4 4 3 4 5 5 5 5 5 5 5 6 6 6 6 6 6 6 5 5 5 5 6 5 5 6 6 7 9 6 4 3 3 3 2 2 1 0 1 2 2 3 4
4 4 4 4 5 5 6 6 5 5 5 6 6 5 5 5 5 5 6 8 8 10 10 9 8 6 7 10 10 9 8 7 6 3 2 1 2 1 1 2 3 3 4
Wind_Direction
230 212 204 195 193 206 217 226 238 256 260 280 276 262 260 256 257 255 260 263 265 265 254 262 260 254 244 242 245 251 254 254 254 280 287 282 258 252 246 234 224 221 219
217 208 203 208 211 219 229 236 238 250 250 248 245 238 244 253 250 254 264 261 263 264 265 258 254 250 247 245 239 233 251 256 227 215 257 293 287 254 248 237 229 227 218
199 209 215 225 223 230 230 238 245 251 254 252 255 273 284 284 276 265 260 254 258 257 258 260 261 254 240 242 238 225 238 245 237 203 212 235 252 281 245 232 231 225 228
198 204 210 225 231 236 236 238 248 255 258 253 247 250 263 269 266 261 259 263 256 253 251 251 256 253 241 242 242 237 228 227 240 229 228 234 244 249 273 254 235 228 228
197 203 214 223 234 237 239 243 250 257 260 254 242 250 261 261 268 270 268 266 260 254 252 248 249 250 243 241 242 239 232 225 230 231 233 241 242 235 242 259 250 244 229
205 213 227 235 249 255 253 251 251 260 262 258 254 251 258 263 269 272 270 269 266 259 252 254 251 251 242 238 239 236 232 230 232 232 226 228 229 225 232 243 243 251 252
212 230 240 247 254 259 258 259 260 264 263 258 257 254 256 257 260 264 264 268 271 271 264 260 256 255 247 242 240 238 236 230 230 234 232 232 235 230 235 240 248 263 278
222 228 237 244 253 258 258 260 263 268 267 263 263 263 261 259 259 257 260 263 265 265 263 262 261 258 254 249 242 241 240 234 230 237 234 235 238 230 230 231 236 257 278
235 241 247 248 252 256 256 253 260 270 271 267 267 269 264 260 262 264 262 264 263 266 263 262 265 263 258 252 245 245 244 239 233 235 235 236 240 233 231 228 221 230 257
252 254 253 250 251 252 257 260 260 262 269 271 271 279 274 270 269 271 269 268 267 268 268 266 266 262 258 255 248 247 246 242 238 235 235 237 240 235 230 226 227 228 237
253 259 257 250 250 260 262 269 271 271 274 275 276 281 282 278 275 273 271 270 270 268 268 266 267 264 260 255 250 247 248 244 244 241 237 237 234 234 233 228 228 230 229
258 259 258 264 268 269 269 268 270 274 275 276 278 279 283 284 283 278 275 273 273 271 270 268 266 263 260 255 250 251 250 245 245 242 237 239 237 232 231 229 228 229 226
271 276 273 268 268 273 277 277 277 276 278 280 282 286 287 284 281 282 281 278 276 276 274 272 267 264 262 259 253 250 251 250 247 243 236 237 234 235 233 231 231 229 231
265 270 274 270 275 278 277 281 284 281 284 289 291 291 289 285 280 283 284 283 281 279 276 275 269 267 264 263 258 253 252 255 251 245 238 236 234 234 231 234 230 226 226
276 273 271 274 280 285 290 289 291 293 293 295 294 290 290 290 287 287 287 287 284 283 280 281 278 274 270 266 262 258 257 258 256 249 241 237 238 239 235 236 226 218 220
272 273 275 278 278 278 284 289 292 294 293 292 292 292 296 299 297 294 292 291 289 286 284 281 279 278 278 281 279 273 263 259 255 253 246 238 238 243 242 241 237 228 222
269 270 272 268 268 272 275 280 286 294 295 293 296 298 299 300 299 301 301 297 293 288 287 282 277 277 279 284 285 282 277 265 257 253 248 246 242 244 229 234 238 237 237
267 272 271 269 272 268 273 284 290 292 291 295 298 299 300 300 302 304 304 301 297 292 288 284 280 279 282 289 290 286 280 268 261 254 249 244 241 236 225 220 228 232 234
268 270 267 270 277 277 279 290 294 295 294 295 296 297 298 301 304 305 305 306 305 301 294 293 290 284 287 291 291 289 280 274 266 259 254 243 238 238 233 225 226 229 238
288 284 285 295 290 290 288 292 292 295 294 293 294 297 298 300 302 302 302 304 304 300 303 301 296 287 286 288 293 293 280 277 273 265 256 249 243 241 244 227 215 217 221
303 307 308 301 288 290 292 298 302 295 291 296 300 302 302 300 299 302 304 308 307 307 307 305 304 299 295 302 303 299 284 274 276 274 270 261 251 247 247 236 217 210 205
324 329 329 315 312 318 317 303 299 298 304 307 306 305 306 307 312 308 307 308 309 308 310 311 312 311 306 306 308 307 299 292 285 283 278 269 265 250 241 232 204 193 192
315 321 317 316 320 324 322 302 300 303 307 312 311 311 313 313 313 309 310 313 312 307 310 315 317 320 323 321 318 318 320 320 315 307 295 286 280 262 236 201 189 186 183
306 313 317 318 317 318 313 295 299 307 310 313 314 315 318 319 321 320 317 315 313 309 307 310 312 314 317 319 326 333 336 333 324 317 314 311 302 282 209 183 182 185 178
307 310 308 310 310 316 316 315 315 320 318 315 314 316 316 315 324 327 322 316 308 298 299 301 303 307 312 313 318 322 316 310 298 314 321 326 314 189 169 167 165 163 158
309 316 315 312 313 317 318 320 320 320 316 316 315 314 314 315 318 323 328 329 322 318 312 310 307 310 309 315 318 322 315 310 307 317 327 329 329 284 190 161 150 152 156
Height
1472 1473 1473 1473 1473 1473 1473 1472 1471 1470 1468 1466 1464 1462 1460 1459 1458 1457 1456 1455 1454 1454 1453 1453 1452 1452 1451 1451 1451 1451 1452 1452 1453 1453 1452 1452 1452 1453 1454 1455 1455 1457 1458
1468 1469 1469 1470 1469 1469 1469 1468 1467 1466 1465 1463 1461 1459 1457 1455 1453 1452 1451 1450 1449 1449 1448 1448 1447 1446 1446 1445 1446 1446 1446 1447 1448 1449 1449 1447 1446 1446 1448 1449 1450 1451 1453
1464 1465 1466 1466 1466 1466 1465 1465 1464 1462 1461 1460 1457 1455 1453 1450 1449 1447 1446 1445 1444 1444 1443 1442 1441 1441 1441 1440 1440 1441 1442 1441 1443 1445 1446 1445 1442 1442 1442 1443 1445 1446 1447
1461 1462 1462 1463 1462 1462 1462 1461 1460 1458 1457 1455 1453 1450 1448 1445 1444 1442 1441 1440 1439 1438 1437 1436 1436 1435 1434 1434 1434 1435 1436 1437 1437 1439 1440 1441 1440 1440 1437 1437 1439 1440 1441
1457 1458 1459 1459 1459 1459 1458 1457 1455 1454 1452 1450 1448 1446 1443 1441 1439 1437 1435 1434 1433 1432 1431 1430 1430 1429 1428 1428 1429 1429 1430 1431 1431 1432 1433 1434 1434 1435 1434 1431 1433 1434 1434
1454 1456 1456 1456 1455 1455 1453 1452 1450 1449 1447 1445 1443 1441 1439 1436 1434 1432 1430 1428 1427 1426 1425 1424 1423 1423 1422 1422 1422 1422 1423 1424 1425 1426 1427 1427 1427 1428 1429 1427 1426 1427 1428
1451 1452 1452 1452 1451 1450 1449 1447 1446 1444 1442 1440 1438 1436 1434 1432 1429 1427 1424 1422 1421 1419 1418 1418 1417 1416 1416 1416 1415 1415 1415 1416 1417 1418 1419 1420 1421 1422 1423 1423 1422 1422 1422
1448 1448 1448 1448 1447 1446 1444 1442 1440 1438 1437 1435 1432 1431 1429 1426 1424 1422 1419 1417 1415 1413 1412 1411 1410 1410 1409 1408 1408 1408 1408 1409 1409 1410 1412 1413 1414 1415 1416 1417 1417 1417 1416
1444 1444 1444 1443 1442 1441 1439 1438 1436 1433 1431 1429 1427 1425 1423 1420 1418 1416 1414 1411 1409 1407 1406 1405 1403 1402 1401 1401 1400 1400 1400 1401 1401 1402 1404 1405 1406 1408 1409 1411 1412 1413 1411
1441 1440 1440 1439 1438 1436 1434 1433 1431 1429 1426 1424 1422 1419 1417 1415 1412 1409 1407 1405 1403 1401 1399 1398 1396 1395 1394 1393 1392 1392 1392 1392 1393 1394 1395 1397 1398 1400 1401 1403 1405 1406 1406
1437 1436 1435 1434 1433 1431 1429 1428 1426 1423 1421 1419 1416 1414 1411 1409 1406 1403 1401 1398 1396 1395 1392 1391 1389 1387 1386 1385 1384 1383 1384 1384 1384 1386 1387 1388 1390 1392 1394 1395 1397 1399 1400
1433 1432 1431 1429 1428 1426 1424 1423 1421 1418 1416 1414 1411 1408 1406 1403 1400 1397 1395 1392 1390 1388 1386 1384 1382 1380 1379 1378 1377 1376 1376 1376 1376 1377 1378 1380 1382 1384 1386 1388 1389 1391 1392
1430 1428 1427 1425 1424 1422 1420 1418 1416 1414 1411 1409 1406 1403 1400 1397 1394 1391 1389 1386 1384 1381 1379 1377 1375 1374 1372 1371 1370 1369 1369 1369 1369 1369 1370 1372 1374 1376 1378 1380 1381 1383 1385
1427 1425 1423 1422 1420 1418 1416 1414 1412 1409 1407 1404 1401 1398 1394 1391 1388 1385 1383 1380 1377 1375 1373 1371 1369 1367 1366 1364 1363 1362 1362 1361 1361 1362 1363 1364 1367 1368 1370 1372 1374 1376 1379
1423 1421 1420 1418 1416 1414 1412 1410 1407 1405 1402 1399 1396 1393 1390 1386 1383 1380 1377 1374 1372 1369 1367 1365 1363 1361 1359 1358 1356 1355 1355 1354 1354 1354 1355 1357 1359 1361 1363 1365 1367 1369 1372
1419 1417 1416 1414 1412 1411 1408 1406 1403 1401 1398 1395 1392 1389 1385 1382 1378 1375 1372 1369 1366 1364 1362 1360 1357 1355 1353 1352 1350 1349 1348 1348 1347 1347 1348 1350 1352 1354 1356 1358 1361 1363 1365
1415 1413 1412 1411 1409 1407 1404 1402 1399 1396 1393 1391 1388 1385 1381 1377 1374 1371 1367 1364 1361 1359 1356 1354 1352 1350 1347 1346 1344 1344 1343 1342 1342 1341 1342 1344 1345 1348 1349 1351 1353 1356 1358
1411 1409 1408 1406 1404 1402 1400 1397 1395 1392 1389 1386 1383 1380 1377 1373 1370 1366 1363 1360 1357 1354 1351 1349 1347 1344 1342 1341 1339 1339 1338 1337 1336 1337 1337 1338 1339 1341 1342 1344 1346 1348 1351
1407 1405 1404 1402 1399 1397 1395 1393 1390 1388 1385 1382 1379 1376 1373 1369 1365 1362 1359 1356 1352 1350 1347 1344 1342 1339 1337 1336 1335 1334 1333 1332 1331 1331 1332 1333 1334 1335 1337 1339 1340 1342 1344
1403 1401 1399 1397 1395 1393 1391 1388 1386 1383 1381 1378 1375 1372 1369 1365 1362 1358 1355 1352 1349 1346 1343 1340 1337 1335 1333 1331 1330 1329 1328 1327 1326 1326 1326 1327 1328 1329 1331 1333 1334 1336 1338
1400 1398 1395 1393 1391 1389 1387 1384 1382 1379 1377 1374 1371 1368 1365 1362 1358 1354 1351 1348 1345 1341 1338 1335 1333 1331 1329 1327 1325 1324 1323 1322 1321 1321 1321 1321 1323 1324 1325 1327 1329 1330 1333
1397 1394 1392 1389 1388 1386 1383 1380 1378 1376 1373 1370 1367 1364 1361 1358 1354 1350 1347 1344 1341 1337 1334 1331 1328 1327 1325 1324 1322 1320 1320 1319 1317 1316 1316 1316 1317 1318 1319 1321 1323 1326 1329
1394 1392 1389 1387 1385 1383 1380 1377 1375 1373 1370 1367 1364 1361 1357 1354 1351 1347 1343 1340 1337 1334 1331 1328 1325 1323 1322 1320 1319 1317 1316 1315 1314 1313 1312 1312 1312 1313 1314 1316 1319 1322 1324
1391 1389 1387 1384 1381 1380 1377 1375 1372 1370 1366 1363 1360 1357 1353 1350 1346 1343 1340 1337 1334 1331 1329 1326 1324 1321 1319 1317 1315 1314 1313 1312 1311 1310 1309 1308 1307 1308 1310 1312 1314 1317 1320
1388 1386 1383 1381 1378 1376 1374 1372 1369 1366 1363 1359 1356 1353 1350 1346 1343 1340 1337 1334 1332 1330 1327 1325 1322 1320 1316 1315 1314 1312 1311 1310 1309 1308 1306 1305 1305 1305 1307 1309 1311 1314 1317
1385 1383 1380 1378 1375 1373 1371 1368 1366 1363 1360 1356 1353 1350 1347 1343 1340 1337 1334 1332 1330 1327 1325 1323 1321 1318 1316 1314 1312 1310 1309 1308 1308 1307 1304 1304 1304 1304 1305 1306 1309 1312 1315